[[{"header":{"parameterUnit":"m.s-1","parameterCategory":1,"la1":30.2992,"la2":30.254,"lo1":-89.0895,"lo2":-89.0443,"dy":0.0025,"dx":0.0025,"nx":19,"ny":19,"refTime":"2026-03-18T21:00:00:Z","depth":0,"parameterNumber":2,"parameterNumberName":"U-component_of_WINDS"},"data":[0,0,0,-2.1265,-2.1266,-2.1294,-2.1294,-2.1356,-2.1356,0,0,0,0,0,0,0,0,0,0,0,-2.1271,-2.1271,-2.1265,-2.1266,-2.1294,-2.1294,-2.1355,-2.1356,0,0,0,0,0,0,0,0,0,0,0,-2.127,-2.1271,-2.1272,-2.1266,-2.1294,-2.1294,-2.1355,-2.1325,0,0,0,0,0,0,0,0,0,0,-2.1294,-2.1312,-2.1271,-2.1272,-2.1267,-2.1294,-2.1294,-2.1324,-2.1327,-2.1353,0,-2.1379,0,-2.1369,-2.1362,-2.1362,0,0,0,-2.1256,-2.1309,-2.1304,-2.1272,-2.1267,-2.1294,-2.1279,-2.1325,-2.133,-2.1359,-2.1379,-2.1381,-2.137,-2.1362,-2.1363,-2.1545,-2.1546,0,0,-2.1255,-2.1283,-2.1301,-2.1307,-2.1303,-2.1278,-2.128,-2.1327,-2.1353,-2.1379,-2.1382,-2.1371,-2.1363,-2.1364,-2.1543,-2.1545,0,0,0,-2.1257,-2.1283,-2.1276,-2.1305,-2.1309,-2.1279,-2.1281,-2.135,-2.1346,-2.1382,-2.1371,-2.1363,-2.1364,-2.1542,-2.1544,-2.1638,0,0,0,-2.1255,-2.1284,-2.1276,-2.1294,-2.1308,-2.1329,-2.1303,-2.1343,-2.1347,-2.1371,-2.1363,-2.1365,-2.154,-2.1543,-2.1632,-2.1679,0,0,0,-2.1264,-2.1285,-2.1293,-2.1295,-2.1308,-2.1328,-2.1326,-2.1343,-2.1341,-2.1362,-2.1366,-2.1539,-2.1543,-2.1627,-2.167,-2.1737,0,0,0,-2.1282,-2.1375,-2.1295,-2.1396,-2.1308,-2.1385,-2.1325,-2.1381,-2.141,-2.1364,-2.1541,-2.1544,-2.1626,-2.1665,-2.1732,-2.1801,-2.1831,0,0,-2.1416,-2.1392,-2.1449,-2.1379,-2.1477,-2.1378,-2.1492,-2.1491,-2.1467,-2.1521,-2.1525,-2.1634,-2.1669,-2.1736,-2.1988,-2.2012,0,0,0,-2.1502,-2.1544,-2.1563,-2.1593,-2.1595,-2.1601,-2.1581,-2.1581,-2.1625,-2.15,-2.1674,-2.1694,-2.1732,-2.1764,-2.1785,-2.1817,-2.1559,-2.1558,-2.1558,-2.1734,-2.1698,-2.1791,-2.176,-2.179,-2.1768,-2.179,-2.1787,-2.1741,-2.1784,-2.18,-2.1957,-2.1995,-2.2011,-2.2045,-2.1831,-2.1832,-2.1832,-2.1832,-2.193,-2.1985,-2.1923,-2.1992,-2.1955,-2.2012,-2.1997,-2.1963,-2.2014,-2.1941,-2.1973,-2.1899,-2.2039,-2.2067,-2.1839,-2.1838,-2.1837,-2.1836,-2.1836,-2.208,-2.21,-2.2099,-2.2139,-2.2175,-2.214,-2.2191,-2.2155,-2.2121,-2.2152,-2.2168,-2.2166,-2.2163,-2.2162,-2.2162,-2.2163,-2.2163,-2.2164,-2.2164,-2.2237,-2.2233,-2.228,-2.2292,-2.2307,-2.2323,-2.2304,-2.2319,-2.2327,-2.2296,-2.2296,-2.225,-2.2057,-2.2012,-2.2172,-2.2171,-2.217,-2.2169,-2.2168,-2.2454,-2.2399,-2.2473,-2.2488,-2.2501,-2.2541,-2.2493,-2.2527,-2.2534,-2.2562,-2.2508,-2.2371,-2.2345,-2.2328,-2.229,-2.2513,-2.2513,-2.2513,-2.2513,-2.2583,-2.2565,-2.2634,-2.2662,-2.2685,-2.265,-2.2738,-2.2726,-2.2704,-2.2707,-2.2669,-2.2615,-2.2599,-2.2583,-2.256,-2.2525,-2.2802,-2.2803,-2.2803,-2.2715,-2.2699,-2.278,-2.2757,-2.2764,-2.2773,-2.2855,-2.2892,-2.2856,-2.2814,-2.271,-2.2698,-2.2609,-2.2582,-2.2539,-2.2505,-2.2439,0,0]},{"header":{"parameterUnit":"m.s-1","parameterCategory":1,"la1":30.2992,"la2":30.254,"lo1":-89.0895,"lo2":-89.0443,"dy":0.0025,"dx":0.0025,"nx":19,"ny":19,"refTime":"2026-03-18T21:00:00:Z","depth":0,"parameterNumber":3,"parameterNumberName":"V-component_of_WINDS"},"data":[0,0,0,0.9233,0.9231,0.9152,0.9152,0.9047,0.9046,0,0,0,0,0,0,0,0,0,0,0,0.9257,0.9256,0.9233,0.9231,0.9152,0.9152,0.9047,0.9046,0,0,0,0,0,0,0,0,0,0,0,0.9257,0.9256,0.9255,0.9231,0.9152,0.9152,0.9047,0.9108,0,0,0,0,0,0,0,0,0,0,0.9185,0.9208,0.9256,0.9255,0.923,0.9152,0.9152,0.9111,0.9104,0.9082,0,0.9065,0,0.9054,0.9039,0.9039,0,0,0,0.923,0.9214,0.9192,0.9255,0.9229,0.9152,0.9187,0.9107,0.9099,0.9073,0.9064,0.906,0.9052,0.9038,0.9038,0.892,0.892,0,0,0.9234,0.9242,0.9197,0.9187,0.9202,0.919,0.9185,0.9102,0.9091,0.9063,0.9057,0.9051,0.9038,0.9037,0.8921,0.892,0,0,0,0.9247,0.9245,0.9226,0.9192,0.9178,0.9188,0.9182,0.9095,0.9088,0.9056,0.9049,0.9037,0.9036,0.8921,0.892,0.8902,0,0,0,0.925,0.9253,0.9228,0.9231,0.9179,0.9136,0.9177,0.9094,0.9084,0.905,0.9037,0.9035,0.8922,0.8921,0.8904,0.8891,0,0,0,0.9261,0.9254,0.9243,0.9232,0.9199,0.9137,0.9126,0.9092,0.908,0.9039,0.9035,0.8922,0.8921,0.8905,0.8894,0.8861,0,0,0,0.9275,0.9228,0.9243,0.9187,0.9199,0.9128,0.9126,0.9072,0.9034,0.9037,0.8922,0.892,0.8906,0.8895,0.8862,0.8833,0.8822,0,0,0.922,0.9222,0.9188,0.9199,0.9127,0.9139,0.9063,0.9021,0.9009,0.895,0.8947,0.8903,0.8894,0.8861,0.8763,0.8754,0,0,0,0.9173,0.9149,0.9128,0.9094,0.9061,0.9031,0.9,0.8984,0.8934,0.8981,0.8884,0.8878,0.8858,0.8843,0.8836,0.8817,0.8915,0.8915,0.8915,0.9104,0.9093,0.9036,0.9015,0.8981,0.8949,0.892,0.8892,0.889,0.8867,0.8849,0.8791,0.8774,0.8769,0.8749,0.8835,0.8834,0.8834,0.8834,0.9019,0.8982,0.8981,0.8926,0.8913,0.8865,0.8832,0.8832,0.8784,0.8804,0.8786,0.8807,0.876,0.8742,0.8833,0.8833,0.8833,0.8833,0.8833,0.897,0.895,0.8933,0.8881,0.8842,0.8822,0.8776,0.8766,0.8757,0.8739,0.8717,0.8717,0.8713,0.873,0.873,0.8729,0.8729,0.8729,0.8729,0.8925,0.8907,0.887,0.8831,0.8807,0.8774,0.8741,0.8716,0.8685,0.8682,0.8681,0.868,0.8759,0.8777,0.8726,0.8726,0.8727,0.8727,0.8727,0.8839,0.8857,0.88,0.8776,0.8729,0.8689,0.8679,0.8628,0.8606,0.8583,0.8585,0.8647,0.8647,0.8652,0.8667,0.859,0.859,0.859,0.859,0.8795,0.8796,0.8735,0.8696,0.8657,0.8642,0.8575,0.8548,0.8523,0.8508,0.8519,0.8538,0.8545,0.8541,0.8549,0.8563,0.8461,0.8461,0.8461,0.874,0.8736,0.8682,0.866,0.8622,0.8589,0.8525,0.8478,0.8454,0.8455,0.8495,0.8501,0.8533,0.8545,0.8544,0.8557,0.8582,0,0]}]]